ARBO2: Arbuckle Lake

Data processed at Tue Feb 19 2019 22:32


All information presented herein is the property of the government of the United States of America and may be revised or deleted at any time without prior notice.
Dissemination of this information without the expressed written consent of the Public Affairs Office, Tulsa District U.S. Army Corps of Engineers is strictly prohibited.
These data are gathered electronically and, as presented, have not undergone any form of quality control. These data are not guaranteed to be valid or correct.
Go to home page.
Go to station list.
Go to home page.

Upstream stations:

Downstream station:
Previous Day
Next Day
Current Day
    
SHEF ID:       ARBO2     Arbuckle Lake
STATION TYPE:  RESERVOIR
Flood Pool:  Bottom =   872.00, Top =   885.30

               PRECIP PRECIP(A) ELEVATION   STORAGE    INFLOW   RELEASE   VOLTAGE  BAT-LOAD
                   in        in        ft     ac-ft       cfs       cfs      volt      volt
              Ccp-Rev   Ccp-Rev   Ccp-Rev   Ccp-Rev  Rev-Regi  Rev-Regi   Ccp-Rev   Ccp-Rev
(US/Central)
02/19 00:00      0.00      ----    872.61     73849        83        83     14.00     13.30
02/19 01:00      0.00      ----    872.61     73849        83        83     14.10     13.30
02/19 02:00      0.00      ----    872.61     73849        83        83     14.10     13.30
02/19 03:00      0.00      ----    872.60     73825        83        83     14.00     13.30
02/19 04:00      0.00      ----    872.61     73849        83        83     14.00     13.30
02/19 05:00      0.00      ----    872.61     73849        83        83     14.00     13.30
02/19 06:00      0.00      ----    872.61     73849        83        83     14.00     13.30
02/19 07:00      0.00      ----    872.60     73825         0        83     14.00     13.30
02/19 08:00      0.00      ----    872.60     73825        83        83     14.10     13.30
02/19 09:00      0.00      ----    872.61     73849        83        83     14.00     13.24
02/19 10:00      0.00      ----    872.60     73825        83        83     14.00     13.30
02/19 11:00      0.00      ----    872.61     73849       255        83     14.00     13.30
02/19 12:00      0.00      ----    872.60     73825       255        83     14.00     13.24
02/19 13:00      0.00      ----    872.63     73896       255        83     14.00     13.24
02/19 14:00      0.00      ----    872.63     73896       255        83     14.10     13.24
02/19 15:00      0.00      ----    872.63     73896       255        83     14.00     13.30
02/19 16:00      0.00      ----    872.63     73896        83        83     14.00     13.30
02/19 17:00      0.00      ----    872.64     73920        83        83     14.00     13.24
02/19 18:00      0.00      ----    872.63     73896       140        83     14.00     13.24
02/19 19:00      0.00      ----    872.63     73896       140        83     14.10     13.07
02/19 20:00      0.00      ----    872.64     73920       140        83     14.00     13.12
02/19 21:00      0.00      ----    872.64     73920       140        83     14.00     13.00
02/19 22:00      0.00      ----    872.64     73920       140        83     14.00     13.12
02/19 23:00      ----      ----      ----      ----      ----        83      ----      ----